Flag for Sweden Weather past 2 weeks in Halmstad, Sweden

Now
37 °F

Fog.


Feels Like: 35 °F
Forecast: 34 / 42 °F
Wind: 3 mph from Northwest

Location: Halmstad Swedish Air Force Base

Current Time: Feb 27, 2015 at 6:34:05 PM

Latest Report: Feb 27, 2015 at 5:50 PM


Visibility: 6 mi

Pressure: 29.92 "Hg

Humidity: 81%

Dew point: 32 °F

Location of HalmstadLocation

Historic Weather in Halmstad — Graph

°F

Halmstad temperature yesterday

Maximum temperature yesterday: 45 °F (at 1:20 PM)
Minimum temperature yesterday: 32 °F (at 7:50 AM)
Average temperature yesterday: 39 °F

Past Weeks' High & Low Weather Summary

 TemperatureHumidityPressure
High45 °F (Feb 26, 1:20 PM)100% (Feb 17, 11:50 PM)30.45 "Hg (Feb 17, 11:50 PM)
Low30 °F (Feb 14, 4:20 AM)57% (Feb 26, 3:20 PM)29.15 "Hg (Feb 21, 5:20 PM)
Average36 °F85%29.92 "Hg
* Reported Feb 12 5:20 PM — Feb 27 5:20 PM, Halmstad, Weather by CustomWeather, © 2015

Note: Actual official high and low records may vary slightly from our data, if they occured in-between our weather recording intervals... More about our weather records

Advertising

Halmstad weather history for previous 24 hours

 ConditionsComfort  
Time TempWeatherWind HumidityBarometerVisibility
5:20 PM
Fri, Feb 27
39 °FFog.3 mph81%29.89 "Hg6 mi
4:50 PM39 °FFog.5 mph81%29.89 "Hg6 mi
4:20 PM41 °FPassing clouds.5 mph70%29.89 "HgN/A
3:50 PM41 °FSunny.5 mph70%29.89 "Hg10 mi
3:20 PM43 °FSunny.3 mph66%29.89 "Hg10 mi
2:50 PM43 °FSunny.3 mph66%29.89 "Hg10 mi
2:20 PM43 °FSunny.6 mph71%29.89 "Hg10 mi
1:50 PM43 °FSunny.6 mph71%29.89 "Hg10 mi
1:20 PM45 °FSunny.7 mph61%29.89 "Hg10 mi
12:50 PM43 °FSunny.12 mph61%29.89 "Hg10 mi
12:20 PM43 °FSunny.12 mph61%29.86 "Hg10 mi
11:50 AM43 °FPassing clouds.8 mph66%29.86 "HgN/A
11:20 AM43 °FPassing clouds.10 mph66%29.86 "HgN/A
10:50 AM41 °FPassing clouds.10 mph66%29.86 "HgN/A
10:20 AM39 °FSunny.9 mph75%29.86 "Hg10 mi
9:50 AM39 °FPartly sunny.9 mph75%29.86 "HgN/A
9:20 AM39 °FPartly sunny.10 mph70%29.86 "HgN/A
8:50 AM37 °FPartly sunny.12 mph75%29.86 "HgN/A
8:20 AM37 °FPartly sunny.13 mph75%29.86 "HgN/A
7:50 AM37 °FPartly sunny.12 mph75%29.86 "HgN/A
7:20 AM37 °FPartly sunny.12 mph75%29.86 "HgN/A
6:50 AM37 °FPassing clouds.13 mph75%29.86 "HgN/A
6:20 AM37 °FPartly cloudy.12 mph75%29.86 "HgN/A
5:50 AM36 °FPassing clouds.10 mph81%29.86 "HgN/A
5:20 AM36 °FOvercast.12 mph81%29.86 "HgN/A
4:20 AM36 °FPassing clouds.13 mph81%29.86 "HgN/A
3:50 AM36 °FPassing clouds.13 mph81%29.86 "HgN/A
3:20 AM36 °FPassing clouds.13 mph81%29.86 "HgN/A
2:50 AM36 °FChilly.14 mph81%29.86 "HgN/A
2:20 AM36 °FChilly.14 mph81%29.89 "HgN/A
1:50 AM36 °FChilly.14 mph81%29.89 "HgN/A
1:20 AM36 °FChilly.14 mph81%29.89 "HgN/A
12:50 AM36 °FChilly.14 mph81%29.89 "HgN/A
12:20 AM36 °FChilly.14 mph81%29.92 "HgN/A
11:50 PM
Thu, Feb 26
36 °FChilly.14 mph81%29.92 "HgN/A
11:20 PM37 °FChilly.15 mph75%29.92 "HgN/A
10:50 PM37 °FChilly.15 mph75%29.95 "HgN/A
10:20 PM37 °FClear.14 mph75%29.95 "Hg10 mi
9:50 PM37 °FClear.14 mph75%29.95 "Hg10 mi
9:20 PM37 °FClear.12 mph75%29.95 "Hg10 mi
8:50 PM39 °FClear.13 mph70%29.95 "Hg10 mi
8:20 PM39 °FPassing clouds.13 mph70%29.98 "HgN/A
7:50 PM39 °FClear.13 mph70%29.98 "Hg10 mi
7:20 PM41 °FClear.14 mph66%29.98 "Hg10 mi
6:50 PM41 °FClear.12 mph66%29.98 "Hg10 mi
6:20 PM41 °FClear.12 mph66%29.98 "Hg10 mi
Weather by CustomWeather, © 2015

See weather overviewHow to use our weather pages